HAWK55 KNKX-KNKX

Flight info

Callsign HAWK55
Flight time N/A
Altitude 12500
Route NUC
Aircraft F35/M-SDFIRY/LB1

Departure

Time 2026-04-22 23:16
Airport Miramar Marine Corps Air Station - Mitscher Field (KNKX)

Arrival

Time N/A
Airport Miramar Marine Corps Air Station - Mitscher Field (KNKX)
Time Latitude Longitude Altitude Speed Heading
2026-04-22 23:07 32.87576 -117.12797 501 ft 0 kts 255°
2026-04-22 23:14 32.87552 -117.12828 501 ft 13 kts 198°
2026-04-22 23:14 32.87470 -117.12801 503 ft 11 kts 154°
2026-04-22 23:14 32.87380 -117.12763 507 ft 15 kts 163°
2026-04-22 23:15 32.87290 -117.12747 507 ft 12 kts 201°
2026-04-22 23:15 32.87251 -117.12858 505 ft 39 kts 256°
2026-04-22 23:15 32.87091 -117.13596 503 ft 139 kts 256°
2026-04-22 23:15 32.86808 -117.14873 750 ft 185 kts 257°
2026-04-22 23:16 32.86432 -117.16591 1286 ft 244 kts 268°
2026-04-22 23:16 32.87499 -117.17726 1649 ft 256 kts 25°
2026-04-22 23:16 32.88188 -117.15739 1608 ft 279 kts 75°
2026-04-22 23:16 32.88595 -117.13643 1566 ft 232 kts 74°
2026-04-22 23:17 32.88919 -117.11995 1328 ft 193 kts 73°
2026-04-22 23:17 32.89093 -117.10320 1321 ft 222 kts 111°
2026-04-22 23:17 32.88019 -117.09592 1165 ft 167 kts 235°
2026-04-22 23:17 32.87671 -117.10836 830 ft 152 kts 258°
2026-04-22 23:18 32.87429 -117.12008 612 ft 148 kts 257°
2026-04-22 23:18 32.87189 -117.13118 501 ft 112 kts 256°
2026-04-22 23:18 32.87028 -117.13880 502 ft 90 kts 256°
2026-04-22 23:18 32.86789 -117.14994 547 ft 182 kts 257°
2026-04-22 23:19 32.86414 -117.16799 1058 ft 263 kts 269°
2026-04-22 23:19 32.87531 -117.18149 1861 ft 255 kts
2026-04-22 23:19 32.88622 -117.16769 1941 ft 245 kts 69°
2026-04-22 23:19 32.89098 -117.14900 1953 ft 237 kts 72°
2026-04-22 23:20 32.89540 -117.12972 1975 ft 249 kts 71°
2026-04-22 23:20 32.90002 -117.10962 1972 ft 252 kts 72°
2026-04-22 23:20 32.90202 -117.09060 1965 ft 208 kts 105°
2026-04-22 23:20 32.89239 -117.08009 1869 ft 189 kts 182°
2026-04-22 23:21 32.88200 -117.08616 1492 ft 163 kts 255°
2026-04-22 23:21 32.87903 -117.09896 1164 ft 161 kts 259°
2026-04-22 23:21 32.87622 -117.11175 853 ft 157 kts 256°
2026-04-22 23:21 32.87367 -117.12343 545 ft 137 kts 256°
2026-04-22 23:22 32.87163 -117.13283 496 ft 89 kts 255°
2026-04-22 23:22 32.87017 -117.13968 503 ft 114 kts 256°
2026-04-22 23:22 32.86748 -117.15193 656 ft 181 kts 256°
2026-04-22 23:22 32.86425 -117.16947 1168 ft 244 kts 285°
2026-04-22 23:23 32.87762 -117.17439 1831 ft 259 kts 25°
2026-04-22 23:23 32.88721 -117.15572 2076 ft 278 kts 69°
2026-04-22 23:23 32.89245 -117.13446 2094 ft 259 kts 72°
2026-04-22 23:23 32.89648 -117.11619 1956 ft 203 kts 72°
2026-04-22 23:24 32.89900 -117.10011 1873 ft 197 kts 95°
2026-04-22 23:24 32.89160 -117.08857 1567 ft 176 kts 171°
2026-04-22 23:24 32.88154 -117.09249 1375 ft 156 kts 250°
2026-04-22 23:24 32.87807 -117.10476 970 ft 158 kts 255°
2026-04-22 23:25 32.87502 -117.11715 686 ft 149 kts 257°
2026-04-22 23:25 32.87262 -117.12814 508 ft 114 kts 256°
2026-04-22 23:25 32.87101 -117.13562 502 ft 79 kts 256°
2026-04-22 23:25 32.86913 -117.14429 501 ft 147 kts 256°
2026-04-22 23:26 32.86628 -117.15714 721 ft 176 kts 258°
2026-04-22 23:26 32.86290 -117.17319 1190 ft 219 kts 257°
2026-04-22 23:26 32.86428 -117.18879 1709 ft 189 kts 355°
2026-04-22 23:26 32.87216 -117.17757 1715 ft 202 kts 70°
2026-04-22 23:27 32.87578 -117.16184 1686 ft 184 kts 70°
2026-04-22 23:27 32.87900 -117.14730 1653 ft 198 kts 72°
2026-04-22 23:27 32.88244 -117.13068 1777 ft 213 kts 74°
2026-04-22 23:27 32.88578 -117.11419 1810 ft 203 kts 72°
2026-04-22 23:28 32.88904 -117.09800 1763 ft 207 kts 99°
2026-04-22 23:28 32.87995 -117.09428 1310 ft 162 kts 248°
2026-04-22 23:28 32.87713 -117.10758 1064 ft 151 kts 260°
2026-04-22 23:28 32.87469 -117.11909 652 ft 146 kts 257°
2026-04-22 23:29 32.87227 -117.13018 502 ft 119 kts 256°
2026-04-22 23:29 32.87059 -117.13811 501 ft 82 kts 256°
2026-04-22 23:29 32.86940 -117.14372 502 ft 61 kts 256°
2026-04-22 23:29 32.86793 -117.15061 507 ft 154 kts 257°
2026-04-22 23:30 32.86698 -117.16631 1179 ft 213 kts 317°
2026-04-22 23:30 32.87899 -117.15882 1660 ft 289 kts 73°
2026-04-22 23:30 32.88315 -117.13397 1588 ft 314 kts 106°
2026-04-22 23:30 32.87237 -117.13380 1415 ft 187 kts 257°
2026-04-22 23:31 32.86900 -117.14928 1152 ft 207 kts 262°
2026-04-22 23:31 32.86693 -117.16547 1141 ft 185 kts 263°
2026-04-22 23:31 32.86593 -117.18047 1090 ft 190 kts 270°
2026-04-22 23:31 32.86599 -117.19683 1173 ft 199 kts 274°
2026-04-22 23:32 32.86727 -117.21256 1190 ft 176 kts 279°
2026-04-22 23:32 32.86850 -117.22454 1447 ft 110 kts 278°
2026-04-22 23:32 32.86928 -117.23470 1919 ft 132 kts 277°
2026-04-22 23:32 32.86986 -117.24608 2287 ft 135 kts 276°
2026-04-22 23:33 32.87014 -117.25616 2250 ft 129 kts 275°
2026-04-22 23:33 32.87052 -117.26894 2460 ft 181 kts 275°
2026-04-22 23:33 32.86127 -117.27338 2133 ft 234 kts 118°
2026-04-22 23:33 32.86555 -117.25850 1849 ft 192 kts 17°
2026-04-22 23:34 32.87528 -117.25814 1837 ft 107 kts 301°
2026-04-22 23:34 32.88073 -117.26802 1283 ft 186 kts 289°
2026-04-22 23:34 32.88114 -117.28063 2261 ft 153 kts 266°
2026-04-22 23:34 32.88069 -117.29391 3715 ft 150 kts 277°
2026-04-22 23:35 32.88923 -117.29553 3707 ft 218 kts 72°
2026-04-22 23:35 32.87910 -117.28845 3422 ft 248 kts 242°
2026-04-22 23:35 32.88230 -117.30951 3486 ft 284 kts 289°
2026-04-22 23:35 32.88736 -117.33011 3583 ft 238 kts 283°
2026-04-22 23:36 32.88417 -117.34474 2975 ft 186 kts 191°
2026-04-22 23:36 32.87198 -117.34096 3281 ft 230 kts 87°
2026-04-22 23:36 32.88047 -117.34053 2667 ft 214 kts 248°
2026-04-22 23:36 32.86912 -117.33982 2231 ft 190 kts 122°
2026-04-22 23:37 32.86907 -117.32730 1218 ft 143 kts 17°
2026-04-22 23:37 32.88368 -117.32060 646 ft 263 kts 19°
2026-04-22 23:37 32.88794 -117.30443 803 ft 247 kts 185°
2026-04-22 23:37 32.88370 -117.31497 1159 ft 140 kts 286°
2026-04-22 23:38 32.88616 -117.32582 1992 ft 166 kts 294°
2026-04-22 23:38 32.89151 -117.33857 1684 ft 175 kts 300°
2026-04-22 23:38 32.89853 -117.35359 1828 ft 231 kts 298°
2026-04-22 23:38 32.89203 -117.36002 2114 ft 230 kts 111°
2026-04-22 23:39 32.90208 -117.35066 1963 ft 270 kts 344°
2026-04-22 23:39 32.91391 -117.36408 1493 ft 225 kts 282°
2026-04-22 23:39 32.91768 -117.37834 1176 ft 131 kts 293°
2026-04-22 23:39 32.91923 -117.38790 1154 ft 112 kts 275°
2026-04-22 23:40 32.91933 -117.39688 1214 ft 107 kts 277°
2026-04-22 23:40 32.92039 -117.40602 1419 ft 126 kts 281°
2026-04-22 23:40 32.91940 -117.42197 1942 ft 251 kts 257°
2026-04-22 23:40 32.91425 -117.44145 1309 ft 245 kts 253°
2026-04-22 23:41 32.90855 -117.45940 1241 ft 229 kts 252°
2026-04-22 23:41 32.90277 -117.47660 1342 ft 222 kts 251°
2026-04-22 23:41 32.89698 -117.49373 1396 ft 223 kts 251°
2026-04-22 23:41 32.89117 -117.51065 1446 ft 219 kts 251°
2026-04-22 23:42 32.88535 -117.52765 1455 ft 222 kts 251°
2026-04-22 23:42 32.87942 -117.54455 1469 ft 220 kts 251°
2026-04-22 23:42 32.87354 -117.56140 1486 ft 216 kts 250°
2026-04-22 23:42 32.86767 -117.57835 1488 ft 227 kts 251°
2026-04-22 23:43 32.86174 -117.59539 1490 ft 220 kts 251°
2026-04-22 23:43 32.85583 -117.61235 1486 ft 221 kts 251°
2026-04-22 23:43 32.84986 -117.62927 1506 ft 221 kts 250°
2026-04-22 23:43 32.84385 -117.64636 1485 ft 219 kts 251°
2026-04-22 23:44 32.83788 -117.66337 1504 ft 220 kts 251°
2026-04-22 23:44 32.83184 -117.68037 1512 ft 221 kts 251°
2026-04-22 23:44 32.82585 -117.69696 1526 ft 212 kts 251°
2026-04-22 23:44 32.82049 -117.71280 1510 ft 203 kts 262°
2026-04-22 23:45 32.81893 -117.72898 1527 ft 196 kts 271°
2026-04-22 23:45 32.81900 -117.74545 1521 ft 200 kts 274°
2026-04-22 23:45 32.81953 -117.76156 1503 ft 196 kts 276°
2026-04-22 23:45 32.82008 -117.77761 1510 ft 191 kts 276°
2026-04-22 23:46 32.82067 -117.79355 1493 ft 191 kts 276°
2026-04-22 23:46 32.82139 -117.80943 1478 ft 197 kts 276°
2026-04-22 23:46 32.82229 -117.82548 1488 ft 192 kts 276°
2026-04-22 23:46 32.82319 -117.84132 1508 ft 194 kts 276°
2026-04-22 23:47 32.82412 -117.85736 1517 ft 195 kts 277°
2026-04-22 23:47 32.82494 -117.87361 1496 ft 199 kts 276°
2026-04-22 23:47 32.82579 -117.88997 1488 ft 199 kts 276°
2026-04-22 23:47 32.82662 -117.90631 1483 ft 199 kts 276°
2026-04-22 23:48 32.82746 -117.92248 1504 ft 196 kts 276°
2026-04-22 23:48 32.82827 -117.93836 1486 ft 194 kts 276°
2026-04-22 23:48 32.82902 -117.95441 1498 ft 198 kts 276°
2026-04-22 23:48 32.82982 -117.97061 1498 ft 194 kts 276°
2026-04-22 23:49 32.83060 -117.98671 1504 ft 198 kts 276°
2026-04-22 23:49 32.83145 -118.00282 1509 ft 195 kts 276°
2026-04-22 23:49 32.83241 -118.01908 1501 ft 197 kts 276°
2026-04-22 23:49 32.83342 -118.03517 1483 ft 195 kts 276°
2026-04-22 23:50 32.83451 -118.05142 1475 ft 197 kts 277°
2026-04-22 23:50 32.83541 -118.06728 1478 ft 195 kts 276°
2026-04-22 23:50 32.83621 -118.08316 1501 ft 191 kts 276°
2026-04-22 23:50 32.83698 -118.09898 1515 ft 191 kts 276°
2026-04-22 23:51 32.83793 -118.11475 1507 ft 191 kts 276°
2026-04-22 23:51 32.83885 -118.13082 1487 ft 197 kts 276°
2026-04-22 23:51 32.83978 -118.14700 1477 ft 196 kts 276°
2026-04-22 23:51 32.84065 -118.16291 1502 ft 191 kts 276°
2026-04-22 23:52 32.84152 -118.17867 1484 ft 191 kts 276°
2026-04-22 23:52 32.84236 -118.19437 1475 ft 197 kts 276°
2026-04-22 23:52 32.84327 -118.21071 1472 ft 195 kts 276°
2026-04-22 23:52 32.84416 -118.22687 1505 ft 199 kts 276°
2026-04-22 23:53 32.84502 -118.24299 1513 ft 191 kts 276°
2026-04-22 23:53 32.84588 -118.25896 1515 ft 196 kts 276°
2026-04-22 23:53 32.84677 -118.27519 1535 ft 196 kts 276°
2026-04-22 23:53 32.84775 -118.29140 1548 ft 200 kts 276°
2026-04-22 23:54 32.84877 -118.30786 1555 ft 196 kts 276°
2026-04-22 23:54 32.84972 -118.32387 1539 ft 197 kts 276°
2026-04-22 23:54 32.85064 -118.33991 1528 ft 198 kts 276°
2026-04-22 23:54 32.85168 -118.35614 1518 ft 201 kts 276°
2026-04-22 23:55 32.85278 -118.37252 1535 ft 195 kts 276°
2026-04-22 23:55 32.85385 -118.38870 1559 ft 197 kts 276°
2026-04-22 23:55 32.85413 -118.40498 1512 ft 199 kts 258°
2026-04-22 23:55 32.84694 -118.41790 1558 ft 204 kts 229°
2026-04-22 23:56 32.83592 -118.42896 1552 ft 207 kts 224°
2026-04-22 23:56 32.82470 -118.43970 1557 ft 199 kts 238°
2026-04-22 23:56 32.82088 -118.45452 1630 ft 192 kts 282°
2026-04-22 23:56 32.82796 -118.46748 1642 ft 191 kts 324°
2026-04-22 23:57 32.83932 -118.47601 1618 ft 191 kts 323°
2026-04-22 23:57 32.85014 -118.48477 1648 ft 191 kts 323°
2026-04-22 23:57 32.86100 -118.49405 1636 ft 194 kts 321°
2026-04-22 23:57 32.87192 -118.50361 1679 ft 195 kts 322°
2026-04-22 23:58 32.88290 -118.51305 1689 ft 189 kts 321°
2026-04-22 23:58 32.89375 -118.52214 1685 ft 188 kts 322°
2026-04-22 23:58 32.89731 -118.52513 1694 ft 196 kts 321°